EW4399 Weather Reports


Display with metric or nautical units.
time (UTC)temp
F
wind
direction
speed
MPH
gust
MPH
rain 1hr
in
rain 24hr
in
rain mn
in
humidity
%
barometer
mb
20260505061505 41 221 8.0 14.0 0.00 0.07 0.00 88 1008.4
20260505060104 40 263 7.0 16.0 0.00 0.07 0.00 89 1008.1
20260505054606 40 238 8.0 16.0 0.00 0.09 0.00 89 1007.9
20260505053111 40 197 6.0 15.0 0.00 0.09 0.00 89 1007.9
20260505051554 40 225 6.0 10.0 0.00 0.09 0.00 89 1007.6
20260505041607 40 211 5.0 11.0 0.00 0.10 0.00 90 1007.0
20260505040041 39 226 6.0 11.0 0.00 0.10 0.00 89 1006.9
20260505034542 39 228 5.0 12.0 0.00 0.18 0.00 89 1006.8
20260505033037 40 234 8.0 12.0 0.00 0.18 0.00 88 1006.7
20260505031533 40 194 7.0 10.0 0.00 0.18 0.00 88 1006.4
20260505030029 40 219 5.0 10.0 0.00 0.18 0.00 87 1006.2
20260505024539 41 222 5.0 9.0 0.00 0.28 0.18 86 1005.9
20260505023023 41 225 6.0 11.0 0.00 0.28 0.18 86 1005.7
20260505021522 41 220 6.0 12.0 0.00 0.28 0.18 85 1005.6
20260505020021 42 199 5.0 10.0 0.00 0.28 0.18 84 1005.5
20260505014519 43 178 6.0 12.0 0.00 0.40 0.18 83 1005.4
20260505013023 43 205 5.0 10.0 0.00 0.40 0.18 83 1005.4
20260505011518 43 190 4.0 8.0 0.00 0.40 0.18 82 1005.3
20260505010017 44 207 3.0 7.0 0.00 0.40 0.18 80 1005.1
20260505004517 44 225 3.0 7.0 0.00 0.51 0.18 79 1004.9
20260505003016 44 224 6.0 12.0 0.00 0.51 0.18 78 1005.2
20260505001515 44 226 5.0 10.0 0.00 0.51 0.18 78 1004.9
20260505000026 44 238 6.0 9.0 0.00 0.51 0.18 77 1004.6
20260504234508 44 207 7.0 12.0 0.00 0.62 0.18 76 1004.2
20260504233005 45 200 6.0 13.0 0.00 0.62 0.18 74 1003.9
20260504231515 45 227 5.0 14.0 0.00 0.62 0.18 74 1003.6
20260504230003 45 173 7.0 12.0 0.00 0.62 0.18 73 1003.6
20260504224501 46 216 5.0 10.0 0.00 0.72 0.18 71 1003.5
20260504223100 46 196 6.0 12.0 0.00 0.72 0.18 69 1003.3
20260504221607 47 222 8.0 14.0 0.00 0.72 0.18 68 1003.1
20260504220056 47 221 8.0 16.0 0.00 0.72 0.18 69 1003.0
20260504214554 49 150 5.0 18.0 0.00 0.79 0.18 65 1002.6
20260504213053 54 198 9.0 28.0 0.00 0.79 0.18 54 1002.6
20260504211552 56 237 12.0 23.0 0.00 0.79 0.18 47 1002.2
20260504210105 56 202 13.0 22.0 0.00 0.79 0.18 47 1002.1
20260504204553 57 248 8.0 23.0 0.00 0.83 0.18 52 1001.8
20260504203047 55 215 14.0 26.0 0.00 0.83 0.18 55 1001.6
20260504201547 54 223 12.0 22.0 0.00 0.83 0.18 59 1001.2
20260504200038 55 261 11.0 21.0 0.00 0.83 0.18 56 1001.0
20260504194556 56 360 10.0 19.0 0.00 0.84 0.18 56 1000.6
20260504193032 55 281 12.0 25.0 0.00 0.84 0.18 56 1000.4
20260504191541 55 204 14.0 23.0 0.00 0.84 0.18 58 1000.4
20260504190032 55 265 12.0 20.0 0.00 0.84 0.18 61 1000.2
20260504184533 54 246 16.0 28.0 0.00 0.85 0.18 60 1000.1
20260504183021 53 255 15.0 35.0 0.00 0.85 0.18 62 1000.0
20260504181518 52 265 16.0 36.0 0.00 0.85 0.18 66 999.8
20260504180019 52 302 12.0 28.0 0.00 0.85 0.18 69 999.9
20260504174510 51 266 15.0 33.0 0.00 0.85 0.18 69 999.7
20260504173014 50 227 11.0 28.0 0.00 0.85 0.18 72 999.4
20260504171506 49 239 14.0 31.0 0.00 0.85 0.18 73 999.2
20260504120114 39 218 17.0 35.0 0.02 0.84 0.17 91 990.2
20260504081513 38 252 13.0 31.0 0.01 0.83 0.16 93 980.3